TimeEDT,TemperatureF,Dew PointF,Humidity,Sea Level PressureIn,VisibilityMPH,Wind Direction,Wind SpeedMPH,Gust SpeedMPH,PrecipitationIn,Events,Conditions,WindDirDegrees,DateUTC
12:53 AM,66.0,57.0,73,30.04,10.0,South,6.9,-,N/A,,Overcast,190,2013-03-18 04:53:00
1:53 AM,64.0,59.0,84,29.99,10.0,East,4.6,-,0.00,Rain,Light Rain,90,2013-03-18 05:53:00
2:53 AM,63.0,57.9,84,30.01,10.0,Calm,Calm,-,0.00,,Clear,0,2013-03-18 06:53:00
3:53 AM,61.0,59.0,93,30.00,10.0,Calm,Calm,-,N/A,,Overcast,0,2013-03-18 07:53:00
4:53 AM,62.1,59.0,90,30.00,10.0,East,4.6,-,N/A,,Mostly Cloudy,80,2013-03-18 08:53:00
5:53 AM,60.1,57.9,93,30.00,10.0,East,5.8,-,N/A,,Clear,90,2013-03-18 09:53:00
6:53 AM,60.1,57.9,93,30.01,10.0,East,4.6,-,N/A,,Clear,80,2013-03-18 10:53:00
7:53 AM,59.0,57.0,93,30.02,10.0,East,4.6,-,N/A,,Scattered Clouds,90,2013-03-18 11:53:00
8:53 AM,64.0,60.1,87,30.02,10.0,SE,6.9,-,N/A,,Clear,130,2013-03-18 12:53:00
9:53 AM,72.0,64.0,76,30.01,10.0,SSE,15.0,-,N/A,,Clear,160,2013-03-18 13:53:00
10:53 AM,75.0,63.0,66,30.02,10.0,South,17.3,-,N/A,,Clear,170,2013-03-18 14:53:00
11:53 AM,75.9,64.0,67,30.01,10.0,South,12.7,-,N/A,,Clear,190,2013-03-18 15:53:00
12:53 PM,73.9,64.9,73,30.02,10.0,South,17.3,21.9,N/A,,Clear,180,2013-03-18 16:53:00
12:59 PM,73.4,64.4,73,30.02,10.0,South,16.1,-,N/A,,Overcast,190,2013-03-18 16:59:00
1:53 PM,72.0,64.9,78,30.01,10.0,South,16.1,23.0,N/A,,Scattered Clouds,180,2013-03-18 17:53:00
2:53 PM,70.0,66.9,90,29.97,8.0,South,18.4,25.3,0.00,Rain,Light Rain,170,2013-03-18 18:53:00
3:04 PM,69.8,66.2,88,29.97,9.0,South,16.1,-,0.01,Rain,Light Rain,180,2013-03-18 19:04:00
3:53 PM,69.1,66.9,93,29.93,8.0,South,20.7,28.8,0.03,Rain,Light Rain,170,2013-03-18 19:53:00
4:00 PM,69.8,66.2,88,29.92,8.0,South,23.0,31.1,0.00,Rain,Light Rain,170,2013-03-18 20:00:00
4:53 PM,69.1,66.9,93,29.92,10.0,South,12.7,-,0.01,Rain,Light Rain,170,2013-03-18 20:53:00
5:53 PM,69.1,66.0,90,29.93,10.0,South,8.1,-,0.00,,Partly Cloudy,170,2013-03-18 21:53:00
6:53 PM,66.9,64.9,93,29.94,10.0,SW,6.9,-,N/A,,Clear,230,2013-03-18 22:53:00
7:53 PM,66.0,64.0,93,29.96,10.0,SSW,5.8,-,N/A,,Clear,210,2013-03-18 23:53:00
8:53 PM,66.0,64.0,93,29.98,10.0,SW,4.6,-,N/A,,Clear,220,2013-03-19 00:53:00
9:19 PM,66.2,64.4,94,29.99,10.0,SW,4.6,-,N/A,,Mostly Cloudy,230,2013-03-19 01:19:00
9:53 PM,66.9,64.9,93,29.98,10.0,SSW,10.4,-,0.00,Rain,Light Rain,200,2013-03-19 01:53:00
10:53 PM,66.9,64.9,93,29.91,10.0,South,18.4,-,0.01,,Clear,180,2013-03-19 02:53:00